logo
App data

Won't You Be My Laser?

An 80s-themed puzzle game in which you avoid the line of sight of lethal gun turrets... while acquiring pick-up sticks.
Store | Hub | SteamDB | Site
Developer: Chequered Ink Ltd. Publisher: Chequered Ink Ltd.
Genre: Casual, Indie
Languages: English
Tags: Indie (24), Casual (23)
Category: Single-player, Steam Achievements, Full controller support, Steam Trading Cards
Release date: Sep 2, 2016
Price: $0.99
Owners: 20,000 .. 50,000
Followers: 102
Peak concurrent players yesterday: 3

Steam Spy is still in beta, so expect major bugs.

Owners data:

Access restricted.

This feature is only available to users with special access rights. Sorry.

If you want to proceed, you need to register or log in first and then back Steam Spy on Patreon. Look for Indie or Pro pledge.

Don't forget to use the same email as on Steam Spy!

If you've recently backed Steam Spy on Patreon, please note, that it might take around 15 minutes for your access rights to sync. In most cases you'll need to re-login on Steam Spy too.

Audience in 2 weeks:

Access restricted.

This feature is only available to users with special access rights. Sorry.

If you want to proceed, you need to register or log in first and then back Steam Spy on Patreon. Look for Indie or Pro pledge.

Don't forget to use the same email as on Steam Spy!

If you've recently backed Steam Spy on Patreon, please note, that it might take around 15 minutes for your access rights to sync. In most cases you'll need to re-login on Steam Spy too.

Peak daily concurrent players:

CCU data courtesy of SteamDB. Used with permission.

Hourly concurrent players:

Followers over time

Access restricted.

This feature is only available to users with special access rights. Sorry.

If you want to proceed, you need to register or log in first and then back Steam Spy on Patreon. Look for Indie or Pro pledge.

Don't forget to use the same email as on Steam Spy!

If you've recently backed Steam Spy on Patreon, please note, that it might take around 15 minutes for your access rights to sync. In most cases you'll need to re-login on Steam Spy too.

Views for top 50 videos on YouTube for this game:

Games similar to this one:

# Game Release date
Price
Score rank
(Userscore / Metascore)
Owners
Players
Playtime (Median)
1 Air Missions: HIND Jun 14, 2017 $16.99N/A (N/A)20,000 .. 50,0000%00:00 (00:00)
2 Reptilian Rebellion Aug 8, 2016 $2.99N/A (N/A)50,000 .. 100,0000%00:00 (00:00)
3 Melting Hearts: Our Love Will Grow 2 Apr 29, 2016 N/AN/A (N/A)20,000 .. 50,0000%00:00 (00:00)
4 Forgotten, Not Lost - A Kinetic Novel Apr 2, 2016 $1.99N/A (N/A)20,000 .. 50,0000%00:00 (00:00)
5 Burst Mar 14, 2016 N/AN/A (N/A)20,000 .. 50,0000%00:00 (00:00)
6 Hustle Cat Mar 16, 2016 $19.99N/A (N/A)50,000 .. 100,0000%00:00 (00:00)
7 Caravanserail Feb 26, 2016 $2.99N/A (N/A)0 .. 20,0000%00:00 (00:00)
8 RePete Nov 1, 2015 $1.99N/A (N/A)0 .. 20,0000%00:00 (00:00)
9 Sophie's Curse Mar 16, 2016 $4.99N/A (N/A)50,000 .. 100,0000%00:00 (00:00)
10 Broken Dreams Feb 19, 2016 $1.99N/A (N/A)500,000 .. 1,000,0000%00:00 (00:00)
11 Goodnight Butcher Dec 18, 2015 $1.99N/A (N/A)0 .. 20,0000%00:00 (00:00)
12 Recursion Deluxe Feb 12, 2016 $4.99N/A (N/A)0 .. 20,0000%00:00 (00:00)
13 Hyposphere May 5, 2016 $2.99N/A (N/A)200,000 .. 500,0000%00:00 (00:00)
14 SquareCells Dec 7, 2015 $2.99N/A (N/A)50,000 .. 100,0000%00:00 (00:00)
15 Herding Dog Jan 15, 2016 $0.99N/A (N/A)0 .. 20,0000%00:00 (00:00)
16 The Last NightMary - A Lenda do Cabeça de Cuia Nov 2, 2015 $3.99N/A (N/A)50,000 .. 100,0000%00:00 (00:00)
17 Lift It Jan 20, 2017 $4.99N/A (N/A)50,000 .. 100,0000%00:00 (00:00)
18 Anode Oct 5, 2015 $3.99N/A (N/A)20,000 .. 50,0000%00:00 (00:00)
19 Gridworld Dec 29, 2015 $0.99N/A (N/A)0 .. 20,0000%00:00 (00:00)
20 12 Labours of Hercules IV: Mother Nature (Platinum Edition) Dec 25, 2015 $2.99N/A (N/A)20,000 .. 50,0000%00:00 (00:00)
21 Backgammon Blitz Nov 12, 2015 $3.99N/A (N/A)20,000 .. 50,0000%00:00 (00:00)
22 Tennis in the Face Nov 18, 2015 $4.99N/A (N/A)0 .. 20,0000%00:00 (00:00)
23 Labyrinth Simulator Sep 21, 2015 $4.99N/A (N/A)0 .. 20,0000%00:00 (00:00)
24 The Deletion Jul 30, 2015 $1.99N/A (N/A)20,000 .. 50,0000%00:00 (00:00)
25 Carrie's Order Up! Sep 13, 2016 $2.99N/A (N/A)0 .. 20,0000%00:00 (00:00)
26 Darkarta: A Broken Heart's Quest Collector's Edition Mar 8, 2017 $9.99N/A (N/A)50,000 .. 100,0000%00:00 (00:00)
27 Dungeon Painter Studio Feb 26, 2017 $14.99N/A (N/A)50,000 .. 100,00020%00:39 (00:13)
28 Ninja Stealth 2 Jan 30, 2017 $0.49N/A (N/A)100,000 .. 200,0000%00:00 (00:00)
29 Winexy Jan 13, 2017 $0.49N/A (N/A)50,000 .. 100,0000%00:00 (00:00)
30 Space Hotel Jan 4, 2017 $1.99N/A (N/A)0 .. 20,0000%00:00 (00:00)
31 Neon Prism Nov 18, 2016 $10.99N/A (N/A)100,000 .. 200,0000%00:00 (00:00)
32 The Survey Oct 27, 2016 $0.99N/A (N/A)20,000 .. 50,0000%00:00 (00:00)
33 GO AWAY, THERE'S KUMIS OVER THERE! Oct 28, 2016 $0.99N/A (N/A)50,000 .. 100,0000%00:00 (00:00)
34 Kombine Oct 14, 2016 $0.99N/A (N/A)20,000 .. 50,0000%00:00 (00:00)
35 Archimedes Oct 6, 2016 $1.99N/A (N/A)20,000 .. 50,0000%00:00 (00:00)
36 Turbo Pug 3D Sep 20, 2016 $0.99N/A (N/A)200,000 .. 500,0000%00:00 (00:00)
37 Collisions Jul 28, 2015 $3.99N/A (N/A)50,000 .. 100,0000%00:00 (00:00)
38 Football Blitz Jan 4, 2017 N/AN/A (N/A)0 .. 20,0000%00:00 (00:00)
39 Optika Aug 26, 2016 $4.99N/A (N/A)0 .. 20,0000%00:00 (00:00)
40 ConflictCraft Dec 8, 2016 $0.49N/A (N/A)100,000 .. 200,0000%00:00 (00:00)
41 Beeftacular Aug 26, 2016 $1.49N/A (N/A)20,000 .. 50,0000%00:00 (00:00)
42 12 Labours of Hercules V: Kids of Hellas (Platinum Edition) Jun 17, 2016 $2.99N/A (N/A)20,000 .. 50,0000%00:00 (00:00)
43 Totally Unbalanced Jul 29, 2016 FreeN/A (N/A)50,000 .. 100,0000%00:00 (00:00)
44 Frog Climbers Oct 6, 2016 $6.99N/A (N/A)20,000 .. 50,0000%00:00 (00:00)
45 Magma Tsunami Jun 1, 2016 $0.99N/A (N/A)200,000 .. 500,0000%00:00 (00:00)
46 Autumn Sep 23, 2014 $0.54N/A (N/A)50,000 .. 100,0000%00:00 (00:00)
47 King's Guard TD Jun 8, 2016 $2.99N/A (N/A)200,000 .. 500,0000%00:00 (00:00)
48 On Rusty Trails Jun 13, 2016 $12.99N/A (N/A/77%)0 .. 20,0000%00:00 (00:00)
49 Marble Duel: Sphere-Matching Tactical Fantasy Nov 12, 2015 $14.99N/A (N/A)50,000 .. 100,0000%00:00 (00:00)
50 Steam and Metal Feb 9, 2015 $4.99N/A (N/A)0 .. 20,0000%00:00 (00:00)
51 The Jackbox Party Pack Nov 26, 2014 $24.99N/A (N/A)200,000 .. 500,0002.94%00:43 (00:14)
52 Sinister City Oct 20, 2014 $0.99N/A (N/A)100,000 .. 200,0000%00:00 (00:00)
53 Laserlife Sep 22, 2015 $9.99N/A (N/A)20,000 .. 50,0000%00:00 (00:00)
54 Quantum Rush Champions Dec 4, 2014 $9.99N/A (N/A)20,000 .. 50,0000%00:00 (00:00)
55 A Good Snowman Is Hard To Build Feb 25, 2015 $9.99N/A (N/A)50,000 .. 100,0000%00:00 (00:00)
56 Bloop Reloaded Feb 6, 2015 FreeN/A (N/A)100,000 .. 200,0000%00:00 (00:00)
57 Cute Things Dying Violently Sep 2, 2015 $2.99N/A (N/A)0 .. 20,0000%00:00 (00:00)
58 Cyto Jul 10, 2014 $3.99N/A (N/A)20,000 .. 50,0000%00:00 (00:00)
59 Rage Runner May 16, 2014 $4.99N/A (N/A)0 .. 20,0000%00:00 (00:00)
60 12 Labours of Hercules Mar 23, 2015 $2.99N/A (N/A)100,000 .. 200,0000%00:00 (00:00)
61 Tribloos 2 Jan 12, 2013 $4.99N/A (N/A)100,000 .. 200,0000%00:00 (00:00)
62 Paranormal State: Poison Spring Apr 9, 2014 $9.99N/A (N/A)50,000 .. 100,0000%00:00 (00:00)
63 Grapple Mar 9, 2015 $6.99N/A (N/A)20,000 .. 50,0000%00:00 (00:00)
64 Farm for your Life Jun 16, 2014 $9.99N/A (N/A)50,000 .. 100,0000%00:00 (00:00)
65 Girls Like Robots Feb 14, 2014 $6.99N/A (N/A)100,000 .. 200,0000%00:00 (00:00)
66 Dead Man's Draw Feb 6, 2014 $6.99N/A (N/A)50,000 .. 100,0000%00:00 (00:00)
67 Particulars Nov 19, 2014 FreeN/A (N/A/74%)0 .. 20,0000%00:00 (00:00)
68 Oozi: Earth Adventure Dec 5, 2013 $4.99N/A (N/A/66%)20,000 .. 50,0000%00:00 (00:00)
69 Luxor Evolved Mar 1, 2012 $9.99N/A (N/A)20,000 .. 50,0000%00:00 (00:00)
70 Governor of Poker 2 - Premium Edition Oct 11, 2010 $7.99N/A (N/A)20,000 .. 50,0000%00:00 (00:00)
71 Industry Transporters Aug 31, 2015 $9.99N/A (N/A)0 .. 20,0000%00:00 (00:00)
72 Robot vs Birds Zombies Jul 23, 2015 $0.99N/A (N/A)500,000 .. 1,000,0000%00:00 (00:00)
73 In Between Aug 21, 2015 $1.79N/A (N/A/68%)50,000 .. 100,0000%00:00 (00:00)
74 Alpha Runner Sep 2, 2015 $0.99N/A (N/A)100,000 .. 200,0000%00:00 (00:00)
75 Asphyxia Aug 4, 2015 $5.99N/A (N/A)20,000 .. 50,0000%00:00 (00:00)
76 Sentinel 4: Dark Star Aug 13, 2015 $6.99N/A (N/A)0 .. 20,0000%00:00 (00:00)
77 Wanda - A Beautiful Apocalypse Jun 3, 2016 $1.99N/A (N/A)100,000 .. 200,0000%00:00 (00:00)
78 Job the Leprechaun Jul 31, 2015 $2.99N/A (N/A)20,000 .. 50,0000%00:00 (00:00)
79 Star Chronicles: Delta Quadrant Jul 7, 2015 $0.99N/A (N/A)200,000 .. 500,0000%00:00 (00:00)
80 Koala Kids Jun 22, 2015 $1.99N/A (N/A)100,000 .. 200,0000%00:00 (00:00)
81 Fate Tectonics Sep 9, 2015 $4.99N/A (N/A)20,000 .. 50,0000%00:00 (00:00)
82 Space Drifters 2D Mar 28, 2016 $0.99N/A (N/A)20,000 .. 50,0000%00:00 (00:00)
83 Thrillville: Off the Rails Oct 9, 2007 $9.99N/A (N/A/70%)20,000 .. 50,0000%00:00 (00:00)
84 Power of Love Jul 21, 2015 $0.99N/A (N/A)20,000 .. 50,0000%00:00 (00:00)
85 Egg Returns Home May 5, 2015 N/AN/A (N/A)50,000 .. 100,0000%00:00 (00:00)
86 Alter World May 29, 2015 $1.99N/A (N/A)200,000 .. 500,0000%00:00 (00:00)
87 Drizzlepath Mar 12, 2015 $1.99N/A (N/A)20,000 .. 50,0000%00:00 (00:00)
88 Pester Aug 21, 2015 $0.99N/A (N/A)100,000 .. 200,0000%00:00 (00:00)
89 Racecraft Mar 4, 2016 FreeN/A (N/A)20,000 .. 50,0000%00:00 (00:00)
90 Streets of Chaos Jan 23, 2015 N/AN/A (N/A)100,000 .. 200,0000%00:00 (00:00)
91 Astro Emporia Feb 2, 2015 $0.99N/A (N/A)50,000 .. 100,0000%00:00 (00:00)
92 Pixel Puzzles 2: Birds Feb 20, 2015 $4.99N/A (N/A)100,000 .. 200,0000%00:00 (00:00)
93 Bob Was Hungry Aug 19, 2015 $9.99N/A (N/A)50,000 .. 100,0000%00:00 (00:00)

Tags over time:

Access restricted.

This feature is only available to users with special access rights. Sorry.

If you want to proceed, you need to register or log in first and then back Steam Spy on Patreon. Look for Indie or Pro pledge.

Don't forget to use the same email as on Steam Spy!

If you've recently backed Steam Spy on Patreon, please note, that it might take around 15 minutes for your access rights to sync. In most cases you'll need to re-login on Steam Spy too.

Owners of this game also own:

Access restricted.

This feature is only available to users with special access rights. Sorry.

If you want to proceed, you need to register or log in first and then back Steam Spy on Patreon. Look for Indie or Pro pledge.

Don't forget to use the same email as on Steam Spy!

If you've recently backed Steam Spy on Patreon, please note, that it might take around 15 minutes for your access rights to sync. In most cases you'll need to re-login on Steam Spy too.

Playtime distribution:

Access restricted.

This feature is only available to users with special access rights. Sorry.

If you want to proceed, you need to register or log in first and then back Steam Spy on Patreon. Look for Indie or Pro pledge.

Don't forget to use the same email as on Steam Spy!

If you've recently backed Steam Spy on Patreon, please note, that it might take around 15 minutes for your access rights to sync. In most cases you'll need to re-login on Steam Spy too.

Playtime (2 weeks):

Access restricted.

This feature is only available to users with special access rights. Sorry.

If you want to proceed, you need to register or log in first and then back Steam Spy on Patreon. Look for Indie or Pro pledge.

Don't forget to use the same email as on Steam Spy!

If you've recently backed Steam Spy on Patreon, please note, that it might take around 15 minutes for your access rights to sync. In most cases you'll need to re-login on Steam Spy too.

User reviews:

Login required.

Please register or log in to see this information.